Ratings

370 records found.
ID Full Name Model Yacht Namesort descending Spinnaker Rating Non-spin. Rating Base Rating Genoa Spin. Adj. Genoa Non-spin. Adj. Mainsail Adj. Spin. Pole Adj. Asym Adj. Mast Adj. Prop. Adj. Misc. Adj. Yacht Club Certificate Expires Status
13969 Peter Erkkinen Columbia 26 MK II SISU 243 264 228 6 6 0 0 0 0 0 6 NTYC 4/30/2020 Published
14105 Bill Fullaway Catalina 320 WK Smelly Cat 187 207 165 4 4 0 0 0 0 12 0 Barrington 4/30/2020 Published
14284 Paul Sevigny GP 26 Smokeshow 78 93 78 0 0 0 0 0 0 0 0 Noroton YC, NYYC 4/30/2020 Published
14091 Millard, Robert B. Pearson Triton MH Solitaire 254 272 249 1 1 0 0 0 1 0 0 Bristol YC 4/30/2020 Published
13758 Helme, Ernest J/92 S Spirit 96 114 96 0 0 0 0 0 0 0 0 CHNYC 4/30/2020 Published
14251 David Pedrick Freedom 35 Star Dancer 130 143 132 -5 -5 0 0 0 0 0 0 New York YC 4/30/2020 Published
13667 Evan Ide Columbia Sabre Starling 201 216 201 0 0 0 0 0 0 0 0 American Yacht Club 4/30/2020 Published
13653 Richard Levine Nelson/Marek 40 Stars & Stripes 66 87 63 3 3 0 0 0 0 0 0 Newport Yacht Club 4/30/2020 Published
14152 Lindquist, Mark J/105 Sterling 93 111 93 0 0 0 0 0 0 0 0 Beverly Yacht Club 4/30/2020 Published
14288 Herreshoff, Halsey C. CTM-Herreshoff 33 Streaker 94 113 87 7 7 0 0 -3 0 0 0 New York YC 4/30/2020 Published
14259 Lush, Tony C&C 29 Summer Song 201 224 180 6 6 0 0 0 0 12 0 Conanicut 4/30/2020 Published
14146 Roy, Fred Herreshoff S ODR Surprise 203 207 203 0 0 0 0 0 0 0 0 Newport YC 4/30/2020 Published
13905 Joseph Ney Frers 36 Sweet Rocket 96 117 93 0 0 0 0 0 0 0 0 Newport YC 4/30/2020 Published
13623 Thomas Byanski Hunter 37C Switchback 156 179 135 12 12 0 0 0 0 6 0 East Greenwich Yacht Club 4/30/2020 Published
13725 Whitney, Bob Sonar Swizzle Stick 180 196 180 0 0 0 0 0 0 0 0 Newport YC 4/30/2020 Published
13776 Morash, Gregg Sabre 38 1 102 DK Tamanoa 122 144 114 5 5 0 0 0 0 0 0 Tiverton YC 4/30/2020 Published
14173 Martin Keen Morris M36-SD Temperance 132 143 123 0 0 0 0 6 0 0 0 CYC 4/30/2020 Published
14056 Staats, Jeffrey L. Pearson Ensign ODR Temptation 255 268 255 0 0 0 0 0 0 0 0 Newport YC 4/30/2020 Published
13911 Gowell, Jay Taylor 41 Temptress 51 71 51 0 0 0 0 0 0 0 0 CCA. NYYC, Conanicut 4/30/2020 Published
14113 Iriye, Robert & Marie J/24 Tenacious 174 193 174 0 0 0 0 0 0 0 0 Newport YC 4/30/2020 Published
13885 Borge, Chuck C&C 41 Tenacious 97 110 72 12 12 -2 0 9 0 0 0 4/30/2020 Published
14049 Walsh, Jonathan S2 9.2 A Tendresse II 202 223 189 4 4 0 0 0 0 6 0 Bristol Yacht Club 4/30/2020 Published
13927 Ferguson. Bruce C. Nonsuch 36 Terabithia 174 174 177 0 0 0 0 0 0 0 -3 Wickford YC 4/30/2020 Published
13743 Lincoln Mossop Club Swan 42 The Cat Came Back -3 18 -3 0 0 0 0 0 0 0 0 New York YC Jamestown YC 4/30/2020 Provisional
14331 Øivind Lorentzen One Tonner The Hawk 107 127 105 3 3 0 -4 0 0 0 0 IHYC/NYYC 4/30/2020 Provisional
13958 William Snyder J/80 ODR The Party Tree 120 137 120 0 0 0 0 0 0 0 0 Sail Newport 4/30/2020 Published
14199 Alfred Nazareth III Cal 25 MKII Therapy 231 253 222 6 6 0 0 0 0 0 0 Rhode Island 4/30/2020 Published
14100 Thorsen, Kenneth R. Pearson 28-1 30+ Thora 196 217 195 1 1 0 0 0 0 0 0 East Greenwich 4/30/2020 Published
14004 Choiniere, Brian N. Hunter 310 Three Sheets 180 198 162 12 12 0 0 0 0 0 0 Rhode Island YC 4/30/2020 Published
13712 Thomas Armstrong Grieb Swan 46 MK II Tiger 64 85 60 1 1 0 0 0 0 0 0 4/30/2020 Published
13643 Horton, Bob Scampi 30 Tigger 177 199 177 0 0 0 0 0 0 0 0 Spar Island Racing association 4/30/2020 Published
13581 Mark Kelley Xp-38 Timberwolf 40 54 36 0 0 0 0 4 0 0 0 NA 4/30/2020 Published
14102 Robert Greene Alerion Express 28 Torii 159 174 141 12 12 0 0 0 0 0 0 Rush Creek Yacht 4/30/2020 Published
13621 Charles Zechel Contessa 35 ToughOld Bird 126 146 114 6 6 0 0 3 0 0 0 Community Boaing Boston 4/30/2020 Published
13702 Todd Barbera & Heidi Herlihy Swan 56 Tramontana -6 3 -12 0 0 0 0 6 0 0 0 Eastern Yacht Club, Storm Trysail Club 4/30/2020 Published
14059 McClintock, Moose S2 7.9 Two Dogs 188 209 177 12 12 0 0 -4 0 0 0 Sail Newport 4/30/2020 Published
13831 Brooke Mastrorio J/109 Ursa 66 85 75 -9 -9 0 0 0 0 0 0 4/30/2020 Published
14119 Brooke Mastrorio J/109 ODR Ursa 75 94 75 0 0 0 0 0 0 0 0 4/30/2020 Published
13834 Saunders, David S2 11.0 A Ursa Major 181 190 147 4 4 0 0 12 0 12 0 Rhode Island YC 4/30/2020 Published
14160 Manchester, Bob J/120 Vamoose 45 62 45 0 0 0 0 0 0 0 0 Barrington YC 4/30/2020 Published
13762 Manchester, Bob J/133 Vamoose 42 61 24 12 12 0 0 0 0 0 0 Barrington YC 4/30/2020 Published
13968 Abhijeet Lele J111 Varuna 42 62 42 0 0 0 0 0 0 0 0 NYYC 4/30/2020 Published
14242 Douglas Bernard Ellison Moody41AC Vayu 126 152 123 0 0 6 0 -9 0 0 0 4/30/2020 Published
13773 Zani, Mike Graves Constellation Vela 189 204 186 0 0 0 0 0 0 0 0 Tiverton YC 4/30/2020 Published
13579 Richard Lett VQ32 Velocity Girl 67 96 87 0 0 0 0 -10 0 0 -10 Wayzata Yacht Club 4/30/2020 Published
13601 Kneller, Bill J/109 Vento Solare 63 85 75 -9 -9 0 0 -3 0 0 0 CHNYC 4/30/2020 Published
13603 Kneller, Bill J/109 ODR Vento Solare 75 94 75 0 0 0 0 0 0 0 0 CHNYC 4/30/2020 Published
13599 Kneller, Bill J/109 Vento Solare 66 85 75 -9 -9 0 0 0 0 0 0 CHNYC 4/30/2020 Published
13904 Chris Cannon Alden 62 Verissimo 63 82 57 -2 -2 0 0 2 0 0 0 Conanicut Yacht Club, NYYC 4/30/2020 Published
13873 Del Bonis, James Jeanneau Sun Fast 37 Vixen 113 126 105 0 0 0 0 5 0 0 0 East Greewich 4/30/2020 Published

Pages